TAM8190 SBGR-KMIA

Flight info

Callsign TAM8190
Flight time N/A
Altitude 34000
Route GERTU UL304 OPNUS UM417 VUDIR/N0493F360 UM417 KONKI UL304 BRUTI UM417 ISUNU UM409 VUMPI UL795 LOGON/N0487F380 UL795 ALTIB UM779 ZEUSS DCT VIICE VIICE2
Aircraft B77W/H-SDE1E2E3FGHIJ2J3J4J5M1RWXY/LB1D1

Departure

Time N/A
Airport São Paulo/Guarulhos–Governor André Franco Montoro International Airport (SBGR)

Arrival

Time 2026-05-05 12:31
Airport Miami International Airport (KMIA)
Time Latitude Longitude Altitude Speed Heading
2026-05-05 11:47 22.89971 -78.58736 37006 ft 463 kts 345°
2026-05-05 11:48 22.96345 -78.59928 36998 ft 465 kts 345°
2026-05-05 11:48 23.02735 -78.61127 36989 ft 464 kts 345°
2026-05-05 11:49 23.09142 -78.62333 36991 ft 465 kts 345°
2026-05-05 11:49 23.15555 -78.63542 37004 ft 464 kts 345°
2026-05-05 11:50 23.21931 -78.64745 37008 ft 464 kts 345°
2026-05-05 11:50 23.28294 -78.65947 37021 ft 461 kts 345°
2026-05-05 11:51 23.34625 -78.67145 37019 ft 462 kts 345°
2026-05-05 11:51 23.40984 -78.68350 37016 ft 463 kts 345°
2026-05-05 11:52 23.47322 -78.69551 37010 ft 461 kts 345°
2026-05-05 11:52 23.53648 -78.70751 37007 ft 461 kts 345°
2026-05-05 11:53 23.59969 -78.71952 37003 ft 462 kts 345°
2026-05-05 11:53 23.66305 -78.73156 37000 ft 459 kts 345°
2026-05-05 11:54 23.72638 -78.74362 37000 ft 460 kts 345°
2026-05-05 11:54 23.78958 -78.75566 36994 ft 458 kts 345°
2026-05-05 11:55 23.85243 -78.76764 36990 ft 458 kts 345°
2026-05-05 11:55 23.91538 -78.77967 36992 ft 459 kts 345°
2026-05-05 11:56 23.97809 -78.79230 36982 ft 456 kts 340°
2026-05-05 11:56 24.03549 -78.81948 36986 ft 449 kts 326°
2026-05-05 11:57 24.08885 -78.85454 36983 ft 446 kts 326°
2026-05-05 11:57 24.14198 -78.88965 36994 ft 444 kts 326°
2026-05-05 11:58 24.19493 -78.92470 36993 ft 445 kts 326°
2026-05-05 11:58 24.24796 -78.95984 36990 ft 447 kts 326°
2026-05-05 11:59 24.30081 -78.99488 36960 ft 434 kts 326°
2026-05-05 11:59 24.32609 -79.01163 36986 ft 414 kts 326°
2026-05-05 11:59 24.35017 -79.02760 36985 ft 395 kts 326°
2026-05-05 12:00 24.37313 -79.04284 37009 ft 378 kts 326°
2026-05-05 12:00 24.39533 -79.05759 36986 ft 368 kts 325°
2026-05-05 12:00 24.44001 -79.08736 36988 ft 379 kts 326°
2026-05-05 12:01 24.48501 -79.11732 36986 ft 378 kts 326°
2026-05-05 12:01 24.52909 -79.14668 36219 ft 370 kts 326°
2026-05-05 12:02 24.55127 -79.16147 35087 ft 379 kts 325°
2026-05-05 12:02 24.57409 -79.17672 33682 ft 394 kts 326°
2026-05-05 12:02 24.59776 -79.19252 32357 ft 407 kts 325°
2026-05-05 12:02 24.62206 -79.20874 31316 ft 413 kts 326°
2026-05-05 12:03 24.64661 -79.22514 30523 ft 414 kts 326°
2026-05-05 12:03 24.67117 -79.24153 29812 ft 413 kts 326°
2026-05-05 12:03 24.69568 -79.25791 29047 ft 413 kts 326°
2026-05-05 12:03 24.72028 -79.27434 28276 ft 414 kts 326°
2026-05-05 12:04 24.74483 -79.29076 28023 ft 413 kts 326°
2026-05-05 12:04 24.76955 -79.30732 28009 ft 419 kts 326°
2026-05-05 12:04 24.79449 -79.32402 28000 ft 419 kts 326°
2026-05-05 12:04 24.81942 -79.34071 28003 ft 418 kts 326°
2026-05-05 12:05 24.86921 -79.37410 28001 ft 419 kts 326°
2026-05-05 12:05 24.89392 -79.39066 27972 ft 410 kts 326°
2026-05-05 12:05 24.91821 -79.40695 27399 ft 407 kts 326°
2026-05-05 12:06 24.94247 -79.42325 26410 ft 411 kts 325°
2026-05-05 12:06 24.96658 -79.43945 25876 ft 400 kts 325°
2026-05-05 12:06 24.98986 -79.45507 25584 ft 383 kts 325°
2026-05-05 12:06 25.01208 -79.46999 25342 ft 366 kts 325°
2026-05-05 12:07 25.03358 -79.48445 24901 ft 360 kts 324°
2026-05-05 12:07 25.05527 -79.49909 24316 ft 370 kts 325°
2026-05-05 12:07 25.07723 -79.51390 23671 ft 370 kts 325°
2026-05-05 12:07 25.09921 -79.52870 23031 ft 370 kts 324°
2026-05-05 12:08 25.12103 -79.54340 22414 ft 370 kts 324°
2026-05-05 12:08 25.14299 -79.55821 21792 ft 367 kts 324°
2026-05-05 12:08 25.16460 -79.57278 21206 ft 362 kts 324°
2026-05-05 12:08 25.18595 -79.58718 20616 ft 357 kts 324°
2026-05-05 12:09 25.20699 -79.60138 20026 ft 353 kts 324°
2026-05-05 12:09 25.22778 -79.61542 19433 ft 349 kts 324°
2026-05-05 12:09 25.24841 -79.62936 18867 ft 347 kts 324°
2026-05-05 12:09 25.26901 -79.64329 18278 ft 348 kts 324°
2026-05-05 12:10 25.28960 -79.65721 17671 ft 346 kts 324°
2026-05-05 12:10 25.31002 -79.67102 17205 ft 343 kts 324°
2026-05-05 12:10 25.33031 -79.68475 16726 ft 341 kts 324°
2026-05-05 12:10 25.35047 -79.69840 16241 ft 339 kts 324°
2026-05-05 12:11 25.37053 -79.71199 15770 ft 338 kts 324°
2026-05-05 12:11 25.38889 -79.72759 15276 ft 330 kts 309°
2026-05-05 12:11 25.40323 -79.74714 14803 ft 326 kts 304°
2026-05-05 12:11 25.41646 -79.76742 14333 ft 325 kts 303°
2026-05-05 12:12 25.42943 -79.78768 13860 ft 324 kts 303°
2026-05-05 12:12 25.44243 -79.80799 13391 ft 323 kts 303°
2026-05-05 12:12 25.45537 -79.82818 12933 ft 321 kts 303°
2026-05-05 12:12 25.46825 -79.84828 12468 ft 320 kts 303°
2026-05-05 12:13 25.48105 -79.86825 12065 ft 317 kts 303°
2026-05-05 12:13 25.49371 -79.88799 11915 ft 315 kts 303°
2026-05-05 12:13 25.50616 -79.90743 11840 ft 300 kts 303°
2026-05-05 12:13 25.51788 -79.92570 11800 ft 282 kts 302°
2026-05-05 12:14 25.52899 -79.94306 11531 ft 274 kts 302°
2026-05-05 12:14 25.53991 -79.96016 11140 ft 271 kts 302°
2026-05-05 12:14 25.55083 -79.97726 10990 ft 273 kts 302°
2026-05-05 12:14 25.56191 -79.99460 10977 ft 276 kts 302°
2026-05-05 12:15 25.57302 -80.01198 10972 ft 276 kts 302°
2026-05-05 12:15 25.58409 -80.02930 10960 ft 273 kts 302°
2026-05-05 12:15 25.59497 -80.04633 10627 ft 272 kts 302°
2026-05-05 12:15 25.60591 -80.06348 10191 ft 275 kts 302°
2026-05-05 12:16 25.61693 -80.08074 9824 ft 274 kts 302°
2026-05-05 12:16 25.62785 -80.09787 9513 ft 271 kts 302°
2026-05-05 12:16 25.63873 -80.11492 9144 ft 271 kts 302°
2026-05-05 12:16 25.64950 -80.13182 8996 ft 266 kts 302°
2026-05-05 12:17 25.65881 -80.14980 8983 ft 267 kts 294°
2026-05-05 12:17 25.66666 -80.16816 8969 ft 261 kts 293°
2026-05-05 12:17 25.67433 -80.18640 8557 ft 265 kts 293°
2026-05-05 12:17 25.68221 -80.20506 8090 ft 268 kts 294°
2026-05-05 12:18 25.69006 -80.22352 7993 ft 263 kts 294°
2026-05-05 12:18 25.69793 -80.24205 7978 ft 262 kts 293°
2026-05-05 12:18 25.70567 -80.26027 7473 ft 265 kts 294°
2026-05-05 12:18 25.71126 -80.27965 6836 ft 268 kts 274°
2026-05-05 12:19 25.71146 -80.30021 6369 ft 267 kts 268°
2026-05-05 12:19 25.71055 -80.32067 5959 ft 264 kts 267°
2026-05-05 12:19 25.70955 -80.34091 5469 ft 265 kts 267°
2026-05-05 12:19 25.70857 -80.36121 5069 ft 262 kts 267°
2026-05-05 12:20 25.70760 -80.38141 5004 ft 266 kts 267°
2026-05-05 12:20 25.70662 -80.40194 4993 ft 265 kts 267°
2026-05-05 12:20 25.70565 -80.42224 4990 ft 264 kts 268°
2026-05-05 12:20 25.70465 -80.44255 4983 ft 265 kts 266°
2026-05-05 12:21 25.70300 -80.46295 4894 ft 266 kts 265°
2026-05-05 12:21 25.70120 -80.48334 4842 ft 265 kts 265°
2026-05-05 12:21 25.69947 -80.50372 4831 ft 267 kts 265°
2026-05-05 12:21 25.69776 -80.52421 4830 ft 267 kts 265°
2026-05-05 12:22 25.69606 -80.54472 4828 ft 266 kts 265°
2026-05-05 12:22 25.69437 -80.56512 4825 ft 267 kts 265°
2026-05-05 12:22 25.69267 -80.58563 4824 ft 266 kts 265°
2026-05-05 12:22 25.69098 -80.60603 4825 ft 268 kts 265°
2026-05-05 12:23 25.68927 -80.62656 4825 ft 268 kts 265°
2026-05-05 12:23 25.68772 -80.64703 4821 ft 269 kts 270°
2026-05-05 12:23 25.69163 -80.66708 4802 ft 266 kts 297°
2026-05-05 12:23 25.70349 -80.68254 4778 ft 267 kts 324°
2026-05-05 12:24 25.72043 -80.69155 4478 ft 270 kts 340°
2026-05-05 12:24 25.73811 -80.69836 4217 ft 267 kts 341°
2026-05-05 12:24 25.75565 -80.70504 3961 ft 265 kts 342°
2026-05-05 12:24 25.77377 -80.70709 3687 ft 263 kts
2026-05-05 12:25 25.79056 -80.69948 3375 ft 263 kts 37°
2026-05-05 12:25 25.80179 -80.68393 3214 ft 252 kts 69°
2026-05-05 12:25 25.80384 -80.66572 3475 ft 234 kts 99°
2026-05-05 12:25 25.79834 -80.64914 3739 ft 228 kts 114°
2026-05-05 12:26 25.79165 -80.63312 3954 ft 232 kts 114°
2026-05-05 12:26 25.78498 -80.61693 3986 ft 228 kts 112°
2026-05-05 12:26 25.78016 -80.60013 3991 ft 230 kts 101°
2026-05-05 12:26 25.77797 -80.58262 3987 ft 229 kts 94°
2026-05-05 12:27 25.77727 -80.56493 3993 ft 230 kts 90°
2026-05-05 12:27 25.77736 -80.54724 3991 ft 230 kts 88°
2026-05-05 12:27 25.77781 -80.52959 3998 ft 230 kts 87°
2026-05-05 12:27 25.77833 -80.51145 3920 ft 243 kts 86°
2026-05-05 12:28 25.77871 -80.49219 3778 ft 251 kts 88°
2026-05-05 12:28 25.77991 -80.47338 3767 ft 239 kts 83°
2026-05-05 12:28 25.78121 -80.45486 3465 ft 243 kts 86°
2026-05-05 12:28 25.78146 -80.43593 3101 ft 248 kts 88°
2026-05-05 12:29 25.78214 -80.41677 2739 ft 249 kts 86°
2026-05-05 12:29 25.78282 -80.39801 2115 ft 236 kts 88°
2026-05-05 12:29 25.78307 -80.38023 1498 ft 227 kts 88°
2026-05-05 12:29 25.78368 -80.36356 1114 ft 206 kts 86°
2026-05-05 12:30 25.78469 -80.34824 671 ft 193 kts 84°
2026-05-05 12:30 25.78543 -80.33404 386 ft 176 kts 87°
2026-05-05 12:30 25.78585 -80.32144 146 ft 152 kts 86°
2026-05-05 12:30 25.78634 -80.30936 24 ft 157 kts 86°
2026-05-05 12:31 25.78679 -80.29887 20 ft 115 kts 87°
2026-05-05 12:31 25.78709 -80.29171 20 ft 70 kts 87°
2026-05-05 12:31 25.78723 -80.28875 20 ft 28 kts 82°
2026-05-05 12:31 25.78776 -80.28722 20 ft 6 kts 48°
2026-05-05 12:32 25.78800 -80.28696 20 ft 0 kts 43°
2026-05-05 12:33 25.78804 -80.28692 20 ft 1 kts 42°
2026-05-05 12:33 25.78812 -80.28684 20 ft 1 kts 41°
2026-05-05 12:34 25.78822 -80.28675 20 ft 0 kts 41°
2026-05-05 12:35 25.78826 -80.28671 20 ft 3 kts 41°
2026-05-05 12:35 25.78872 -80.28627 20 ft 13 kts 39°
2026-05-05 12:35 25.78942 -80.28567 20 ft 0 kts 36°
2026-05-05 12:36 25.78943 -80.28567 20 ft 0 kts 36°
2026-05-05 12:36 25.78980 -80.28539 20 ft 13 kts 33°
2026-05-05 12:36 25.79079 -80.28463 20 ft 11 kts 35°
2026-05-05 12:36 25.79120 -80.28430 20 ft 5 kts 37°
2026-05-05 12:37 25.79139 -80.28414 20 ft 0 kts 39°
2026-05-05 12:37 25.79143 -80.28410 20 ft 3 kts 50°
2026-05-05 12:37 25.79147 -80.28345 20 ft 13 kts 109°
2026-05-05 12:37 25.79102 -80.28247 20 ft 11 kts 120°
2026-05-05 12:38 25.79054 -80.28150 20 ft 16 kts 118°
2026-05-05 12:38 25.78988 -80.28020 20 ft 21 kts 120°
2026-05-05 12:38 25.78911 -80.27873 20 ft 22 kts 120°
2026-05-05 12:38 25.78878 -80.27715 20 ft 21 kts 88°
2026-05-05 12:39 25.78899 -80.27557 20 ft 20 kts 80°
2026-05-05 12:39 25.78914 -80.27468 20 ft 8 kts 80°
2026-05-05 12:39 25.78923 -80.27403 20 ft 5 kts 83°
2026-05-05 12:39 25.78927 -80.27358 20 ft 6 kts 83°
2026-05-05 12:40 25.78928 -80.27353 20 ft 0 kts 82°
2026-05-05 12:40 25.78929 -80.27351 20 ft 0 kts 71°
2026-05-05 12:40 25.78932 -80.27347 20 ft 0 kts 43°
2026-05-05 12:40 25.78936 -80.27345 20 ft 0 kts 19°
2026-05-05 12:41 25.78947 -80.27344 20 ft 3 kts
2026-05-05 12:41 25.78972 -80.27342 20 ft 4 kts
2026-05-05 12:41 25.78997 -80.27342 20 ft 2 kts
2026-05-05 12:41 25.78998 -80.27342 20 ft 0 kts